Hourly Weather Otok Brac

Today, 30 July, Friday

Time Temperature Precipitation Wind Pressure Humidity
00:00 +23°C° 0 mm 2 mps 710 mmHg 60%
01:00 +23°C° 0 mm 2 mps 710 mmHg 58%
02:00 +23°C° 0 mm 2 mps 709 mmHg 57%
03:00 +21°C° 0 mm 2 mps 709 mmHg 55%
04:00 +22°C° 0 mm 1 mps 709 mmHg 53%
05:00 +24°C° 0 mm 1 mps 710 mmHg 50%
06:00 +25°C° 0 mm 1 mps 710 mmHg 46%
07:00 +25°C° 0 mm 0 mps 710 mmHg 43%
08:00 +28°C° 0 mm 1 mps 710 mmHg 40%
09:00 +29°C° 0 mm 2 mps 710 mmHg 38%
10:00 +30°C° 0 mm 2 mps 710 mmHg 35%
11:00 +30°C° 0 mm 3 mps 710 mmHg 36%
12:00 +31°C° 0 mm 3 mps 710 mmHg 38%
13:00 +31°C° 0 mm 3 mps 710 mmHg 40%
14:00 +32°C° 0 mm 4 mps 710 mmHg 39%
15:00 +30°C° 0 mm 4 mps 710 mmHg 38%
16:00 +30°C° 0 mm 4 mps 709 mmHg 38%
17:00 +29°C° 0 mm 3 mps 709 mmHg 40%
18:00 +28°C° 0 mm 2 mps 709 mmHg 43%
19:00 +26°C° 0 mm 1 mps 709 mmHg 45%
20:00 +26°C° 0 mm 1 mps 709 mmHg 47%
21:00 +25°C° 0 mm 1 mps 709 mmHg 48%
22:00 +24°C° 0 mm 2 mps 709 mmHg 50%
23:00 +24°C° 0 mm 1 mps 709 mmHg 51%

Tomorrow, 31 July, Saturday

Time Temperature Precipitation Wind Pressure Humidity
00:00 +24°C° 0 mm 1 mps 709 mmHg 51%
01:00 +23°C° 0 mm 1 mps 709 mmHg 51%
02:00 +23°C° 0 mm 2 mps 708 mmHg 52%
03:00 +23°C° 0 mm 2 mps 708 mmHg 52%
04:00 +23°C° 0 mm 2 mps 708 mmHg 52%
05:00 +24°C° 0 mm 2 mps 708 mmHg 49%
06:00 +26°C° 0 mm 2 mps 708 mmHg 46%
07:00 +27°C° 0 mm 3 mps 708 mmHg 43%
08:00 +28°C° 0 mm 3 mps 709 mmHg 41%
09:00 +30°C° 0 mm 3 mps 709 mmHg 38%
10:00 +31°C° 0 mm 3 mps 709 mmHg 36%
11:00 +31°C° 0 mm 3 mps 709 mmHg 36%
12:00 +31°C° 0 mm 3 mps 709 mmHg 36%
13:00 +33°C° 0 mm 3 mps 708 mmHg 36%
14:00 +33°C° 0 mm 3 mps 708 mmHg 36%
15:00 +31°C° 0 mm 3 mps 708 mmHg 35%
16:00 +31°C° 0 mm 3 mps 708 mmHg 35%
17:00 +30°C° 0 mm 2 mps 707 mmHg 38%
18:00 +28°C° 0 mm 2 mps 707 mmHg 42%
19:00 +27°C° 0 mm 1 mps 707 mmHg 45%
20:00 +26°C° 0 mm 2 mps 707 mmHg 45%
21:00 +26°C° 0 mm 3 mps 707 mmHg 45%
22:00 +25°C° 0 mm 3 mps 708 mmHg 44%
23:00 +25°C° 0 mm 3 mps 707 mmHg 45%

Day after tomorrow, 1 August, Sunday

Time Temperature Precipitation Wind Pressure Humidity
00:00 +25°C° 0 mm 4 mps 707 mmHg 46%
01:00 +23°C° 0 mm 4 mps 707 mmHg 47%
02:00 +23°C° 0 mm 4 mps 707 mmHg 47%
03:00 +23°C° 0 mm 4 mps 707 mmHg 48%
04:00 +23°C° 0 mm 4 mps 707 mmHg 48%
05:00 +25°C° 0 mm 4 mps 707 mmHg 46%
06:00 +26°C° 0 mm 4 mps 707 mmHg 44%
07:00 +28°C° 0 mm 4 mps 708 mmHg 42%
08:00 +28°C° 0 mm 4 mps 708 mmHg 43%
09:00 +29°C° 0 mm 4 mps 708 mmHg 44%
10:00 +29°C° 0 mm 4 mps 708 mmHg 45%
11:00 +30°C° 0 mm 4 mps 708 mmHg 46%
12:00 +30°C° 0 mm 5 mps 708 mmHg 47%
13:00 +30°C° 0 mm 5 mps 708 mmHg 47%
14:00 +30°C° 0 mm 5 mps 708 mmHg 47%
15:00 +30°C° 0 mm 6 mps 707 mmHg 47%
16:00 +29°C° 0 mm 6 mps 707 mmHg 47%
17:00 +28°C° 0.1 mm 5 mps 707 mmHg 54%
18:00 +26°C° 0.1 mm 5 mps 707 mmHg 61%
19:00 +23°C° 0.1 mm 4 mps 707 mmHg 68%
20:00 +23°C° 0 mm 4 mps 707 mmHg 68%
21:00 +24°C° 0 mm 3 mps 707 mmHg 69%
22:00 +22°C° 0 mm 3 mps 708 mmHg 70%
23:00 +23°C° 0 mm 2 mps 708 mmHg 70%

2 August, Monday

Time Temperature Precipitation Wind Pressure Humidity
00:00 +23°C° 0 mm 2 mps 708 mmHg 70%
01:00 +23°C° 0 mm 2 mps 707 mmHg 70%
02:00 +23°C° 0 mm 2 mps 708 mmHg 69%
03:00 +21°C° 0 mm 2 mps 708 mmHg 68%
04:00 +21°C° 0 mm 2 mps 708 mmHg 68%
05:00 +22°C° 0 mm 3 mps 708 mmHg 62%
06:00 +25°C° 0 mm 3 mps 708 mmHg 57%
07:00 +26°C° 0 mm 3 mps 709 mmHg 52%
08:00 +27°C° 0 mm 4 mps 709 mmHg 47%
09:00 +28°C° 0 mm 5 mps 710 mmHg 43%
10:00 +29°C° 0 mm 5 mps 710 mmHg 38%
11:00 +30°C° 0 mm 6 mps 710 mmHg 38%
12:00 +30°C° 0 mm 6 mps 710 mmHg 37%
13:00 +30°C° 0 mm 7 mps 710 mmHg 37%
14:00 +30°C° 0 mm 6 mps 710 mmHg 36%
15:00 +30°C° 0 mm 6 mps 710 mmHg 35%
16:00 +30°C° 0 mm 6 mps 710 mmHg 34%
17:00 +28°C° 0 mm 5 mps 710 mmHg 36%
18:00 +27°C° 0 mm 4 mps 710 mmHg 38%
19:00 +25°C° 0 mm 3 mps 710 mmHg 41%
20:00 +25°C° 0 mm 3 mps 710 mmHg 42%
21:00 +24°C° 0 mm 3 mps 710 mmHg 43%
22:00 +22°C° 0 mm 3 mps 711 mmHg 44%
23:00 +22°C° 0 mm 3 mps 711 mmHg 43%

3 August, Tuesday

Time Temperature Precipitation Wind Pressure Humidity
00:00 +21°C° 0 mm 3 mps 711 mmHg 43%
01:00 +21°C° 0 mm 3 mps 711 mmHg 43%
02:00 +21°C° 0 mm 3 mps 711 mmHg 43%
03:00 +21°C° 0 mm 3 mps 711 mmHg 43%
04:00 +20°C° 0 mm 3 mps 711 mmHg 43%
05:00 +23°C° 0 mm 2 mps 711 mmHg 41%
06:00 +24°C° 0 mm 2 mps 711 mmHg 39%
07:00 +26°C° 0 mm 1 mps 711 mmHg 37%
08:00 +27°C° 0 mm 1 mps 711 mmHg 35%
09:00 +28°C° 0 mm 2 mps 712 mmHg 33%
10:00 +30°C° 0 mm 2 mps 712 mmHg 30%
11:00 +30°C° 0 mm 2 mps 712 mmHg 32%
12:00 +30°C° 0 mm 3 mps 712 mmHg 33%
13:00 +30°C° 0 mm 4 mps 712 mmHg 34%
14:00 +29°C° 0 mm 3 mps 711 mmHg 35%
15:00 +29°C° 0 mm 2 mps 711 mmHg 35%
16:00 +29°C° 0 mm 2 mps 711 mmHg 35%
17:00 +27°C° 0 mm 1 mps 711 mmHg 39%
18:00 +26°C° 0 mm 1 mps 710 mmHg 42%
19:00 +25°C° 0 mm 1 mps 710 mmHg 46%
20:00 +24°C° 0 mm 1 mps 710 mmHg 50%
21:00 +23°C° 0 mm 2 mps 710 mmHg 54%
22:00 +21°C° 0 mm 2 mps 710 mmHg 58%
23:00 +20°C° 0 mm 2 mps 710 mmHg 57%

4 August, Wednesday

Time Temperature Precipitation Wind Pressure Humidity
00:00 +20°C° 0 mm 2 mps 710 mmHg 57%
01:00 +20°C° 0 mm 2 mps 710 mmHg 56%
02:00 +20°C° 0 mm 2 mps 709 mmHg 55%
03:00 +20°C° 0 mm 2 mps 709 mmHg 55%
04:00 +20°C° 0 mm 3 mps 709 mmHg 54%
05:00 +23°C° 0 mm 2 mps 709 mmHg 50%
06:00 +24°C° 0 mm 2 mps 709 mmHg 46%
07:00 +25°C° 0 mm 2 mps 709 mmHg 43%
08:00 +27°C° 0 mm 2 mps 709 mmHg 40%
09:00 +28°C° 0 mm 2 mps 710 mmHg 38%
10:00 +29°C° 0 mm 2 mps 710 mmHg 36%
11:00 +29°C° 0 mm 2 mps 709 mmHg 36%
12:00 +29°C° 0 mm 2 mps 709 mmHg 37%
13:00 +30°C° 0 mm 2 mps 709 mmHg 37%
14:00 +29°C° 0 mm 2 mps 709 mmHg 38%
15:00 +29°C° 0 mm 2 mps 708 mmHg 39%
16:00 +29°C° 0 mm 2 mps 708 mmHg 40%
17:00 +27°C° 0 mm 1 mps 708 mmHg 45%
18:00 +26°C° 0 mm 1 mps 708 mmHg 50%
19:00 +25°C° 0 mm 1 mps 708 mmHg 55%
20:00 +24°C° 0 mm 1 mps 708 mmHg 55%
21:00 +24°C° 0 mm 2 mps 708 mmHg 56%
22:00 +24°C° 0 mm 2 mps 708 mmHg 57%
23:00 +23°C° 0 mm 2 mps 708 mmHg 57%
Show more